User: anonymous   Login
Location: Unspecified
(44.0704°N, 88.6889°W)
Time: 22:04:05
(UTC+02:00)
Language:

CZ-3 Stage 3 - Orbit

View from above orbital plane
View from above orbital plane
View from above satellite
View from above satellite

Ground track
Ground track

The orbit data is extracted from the following two-line orbital elements,

1 14900U 84035B   19144.12927867 -.00000143  00000-0 -28417-3 0  9990
2 14900  30.5366 167.5650 7129698   9.2373 358.9988  2.33873964231275
Epoch (UTC): 24 May 2019 03:06:09
Eccentricity: 0.7129698
inclination: 30.5366°
perigee height: 503 km
apogee height: 34689 km
right ascension of ascending node: 167.5650°
argument of perigee: 9.2373°
revolutions per day: 2.33873964
mean anomaly at epoch: 358.9988°
orbit number at epoch: 23127

The dashed part of the orbit path shows where the satellite is in the earth's shadow,  

DLR